Location: 22
(39.7117°N, 89.5929°W)
Time: 16:04:04
(UTC-05:00)

Tiros 1 despin weight - Pass Details

Date: 17 August 2024
Orbit: 573 x 617 km, 48.2° (Epoch: 17 September)

Event Time Altitude Azimuth Distance (km) Brightness Sun altitude
Rises 22:27:31 0° 286° (WNW) 2,780 ? -26.2°
Reaches altitude 10° 22:30:38 10° 262° (W) 1,873 ? -26.6°
Enters shadow 22:32:12 14° 241° (WSW) 1,620 ? -26.8°
